• Processing (Info)

  • MPEC 2019-G134: 2019 GQ5

    The following Minor Planet Electronic Circular may be linked-to from your own Web pages, but must not otherwise be redistributed electronically.

    A form allowing access to any MPEC is at the bottom of this page.


    Read MPEC 2019-G133 Read MPEC 2019-G135


    M.P.E.C. 2019-G134                               Issued 2019 Apr.  9, 21:50 UT
    
         The Minor Planet Electronic Circulars contain information on unusual
             minor planets and routine data on comets.  They are published
        on behalf of Division F of the International Astronomical Union by the
              Minor Planet Center, Smithsonian Astrophysical Observatory,
                              Cambridge, MA 02138, U.S.A.
    
                 Prepared using the Tamkin Foundation Computer Network
    
                                  MPC@CFA.HARVARD.EDU
                URL https://www.minorplanetcenter.net/    ISSN 1523-6714
    
                                       2019 GQ5
    
    Observations:
         K19G05Q* C2019 04 07.41455 14 15 55.68 -02 14 47.9          19.8 GVEG134G96
         K19G05Q  C2019 04 07.41969 14 15 59.15 -02 14 19.3          20.3 GVEG134G96
         K19G05Q  C2019 04 07.42485 14 16 02.64 -02 13 50.8          20.5 GVEG134G96
         K19G05Q  C2019 04 07.42999 14 16 06.16 -02 13 22.3          19.7 GVEG134G96
         K19G05Q  C2019 04 07.46856 14 16 37.617-02 09 26.13         20.3 wUEG134F51
         K19G05Q  C2019 04 07.48104 14 16 45.982-02 08 16.92         20.4 wUEG134F51
         K19G05Q  C2019 04 07.48688 14 16 44.96 -02 08 05.0          19.4 GVEG134I52
         K19G05Q  C2019 04 07.48813 14 16 45.84 -02 07 58.2          20.1 GVEG134I52
         K19G05Q  C2019 04 07.48938 14 16 46.68 -02 07 51.0          20.1 GVEG134I52
         K19G05Q  C2019 04 07.49063 14 16 47.54 -02 07 44.3          20.2 GVEG134I52
         K19G05Q  C2019 04 07.49349 14 16 54.361-02 07 07.48         20.3 wUEG134F51
         K19G05Q  C2019 04 07.50592 14 17 02.678-02 05 58.32         20.2 wUEG134F51
         K19G05Q KC2019 04 07.60149614 18 11.81 -01 54 54.3          20.0 GVEG134474
         K19G05Q KC2019 04 07.60240614 18 12.41 -01 54 48.8          20.0 GVEG134474
         K19G05Q KC2019 04 07.60331514 18 13.06 -01 54 44.3          20.3 GVEG134474
         K19G05Q KC2019 04 07.60422514 18 13.69 -01 54 39.0          20.3 GVEG134474
         K19G05Q KC2019 04 07.60513614 18 14.27 -01 54 33.2          19.9 GVEG134474
         K19G05Q KC2019 04 07.94301 14 22 25.10 -01 25 29.9          19.2 RVEG134K63
         K19G05Q KC2019 04 07.94726 14 22 28.13 -01 25 04.4          19.6 RVEG134K63
         K19G05Q KC2019 04 07.95365 14 22 32.64 -01 24 27.7          19.6 RVEG134K63
         K19G05Q  C2019 04 08.30034 14 26 50.97 -00 50 41.2          20.9 GVEG134I52
         K19G05Q  C2019 04 08.30076 14 26 51.26 -00 50 39.4          21.1 GVEG134I52
         K19G05Q  C2019 04 08.30117 14 26 51.58 -00 50 37.1          20.8 GVEG134I52
         K19G05Q  C2019 04 08.48474 14 29 07.866-00 32 14.64         20.2 wUEG134F51
         K19G05Q  C2019 04 08.49731 14 29 16.800-00 31 00.15         20.1 wUEG134F51
         K19G05Q  C2019 04 08.95986 14 35 14.74 +00 14 14.8          20.2 VVEG134033
         K19G05Q  C2019 04 08.96111 14 35 15.68 +00 14 22.3          19.9 VVEG134033
         K19G05Q  C2019 04 08.96237 14 35 16.61 +00 14 29.8          20.0 VVEG134033
         K19G05Q  C2019 04 08.96362 14 35 17.56 +00 14 37.3          20.1 VVEG134033
         K19G05Q  C2019 04 08.96488 14 35 18.51 +00 14 44.8          20.4 VVEG134033
         K19G05Q  C2019 04 08.96628 14 35 19.54 +00 14 53.3          20.5 VVEG134033
         K19G05Q KC2019 04 09.40083 14 40 57.72 +00 59 45.4          20.5 RoEG134691
         K19G05Q KC2019 04 09.41989 14 41 11.96 +01 01 43.8          20.3 RoEG134691
         K19G05Q  C2019 04 09.47918 14 41 56.67 +01 07 49.4          19.4 GVEG134I52
         K19G05Q  C2019 04 09.48016 14 41 57.41 +01 07 55.2          19.6 GVEG134I52
         K19G05Q  C2019 04 09.48113 14 41 58.15 +01 08 01.8          20.2 GVEG134I52
    
    Observer details:
    033 Karl Schwarzschild Observatory, Tautenburg.  Observers C. Hoegner,
        B. Stecklum.  Measurer B. Stecklum.  1.34-m f/3 Schmidt + CCD.
    474 Mount John Observatory, Lake Tekapo.  Observers A. C. Gilmore,
        P. M. Kilmartin.  Measurer P. M. Kilmartin.  1.0-m f/7.7 reflector + CCD.
    691 Steward Observatory, Kitt Peak-Spacewatch.  Observer T. H. Bressi.  0.9-m
        f/3 reflector + CCD.
    F51 Pan-STARRS 1, Haleakala.  Observers J. Bulger, T. Lowe, A. Schultz,
        M. Willman.  Measurers K. Chambers, S. Chastel, T. de Boer, L. Denneau,
        J. Fairlamb, H. Flewelling, M. Huber, C.-C. Lin, E. Magnier,
        Y. Ramanjooloo, R. Wainscoat, R. Weryk.  1.8-m Ritchey-Chretien + CCD.
    G96 Mt. Lemmon Survey.  Observer R. A. Kowalski.  Measurers B. M. Africano,
        E. J. Christensen, G. A. Farneth, D. C. Fuls, A. R. Gibbs, A. D. Grauer,
        H. Groeller, R. A. Kowalski, S. M. Larson, G. J. Leonard, T. A. Pruyne,
        R. L. Seaman, F. C. Shelly.  1.5-m reflector + 10K CCD.
    I52 Steward Observatory, Mt. Lemmon Station.  Observers H. Groeller,
        T. A. Pruyne.  Measurers B. M. Africano, E. J. Christensen, G. A. Farneth,
        D. C. Fuls, A. R. Gibbs, A. D. Grauer, H. Groeller, R. A. Kowalski,
        S. M. Larson, G. J. Leonard, T. A. Pruyne, R. L. Seaman, F. C. Shelly.
        1.0-m reflector + CCD.
    K63 G. Pascoli Observatory, Castelvecchio Pascoli.  Observer R. Bacci.
        0.41-m f/3.2 Newtonian reflector + CCD.
    
    Orbital elements:
    2019 GQ5                                                 Earth MOID = 0.0564 AU
    Epoch 2019 Apr. 27.0 TT = JDT 2458600.5                 MPC
    M 357.25584              (2000.0)            P               Q
    n   0.42196413     Peri.   33.81878     -0.68817858     +0.72492256
    a   1.7604311      Node   192.78460     -0.69204418     -0.66824812
    e   0.4143161      Incl.    7.78080     -0.21791073     -0.16712789
    P   2.34           H   24.8           G   0.15           U   7
    Residuals in seconds of arc
    190407 G96  0.1-  0.1-    190407 474  0.2+  0.2-    190408 F51  0.1+  0.0
    190407 G96  0.2-  0.0     190407 474  0.2-  0.2+    190408 033  0.1-  0.2+
    190407 G96  0.1-  0.2-    190407 474  0.2+  0.4-    190408 033  0.0   0.1+
    190407 G96  0.5+  0.2-    190407 474  0.3+  0.2-    190408 033  0.2-  0.0
    190407 F51  0.1-  0.2+    190407 474  0.4-  0.5+    190408 033  0.1+  0.1-
    190407 F51  0.1-  0.0     190407 K63  0.1+  0.7-    190408 033  0.2+  0.2-
    190407 I52  0.0   0.1+    190407 K63  0.6+  0.5+    190408 033  0.0   0.2-
    190407 I52  0.3+  0.1-    190407 K63  0.7+  0.6+    190409 691  0.3+  0.1-
    190407 I52  0.0   0.1+    190408 I52  0.5-  0.3+    190409 691  0.3-  0.4+
    190407 I52  0.1-  0.2-    190408 I52  0.6-  0.4-    190409 I52  0.0   0.1-
    190407 F51  0.2+  0.1+    190408 I52  0.2-  0.5-    190409 I52  0.1-  0.4-
    190407 F51  0.2-  0.1-    190408 F51  0.0   0.1-    190409 I52  0.1-  0.2+
    
    Ephemeris:
    2019 GQ5                 a,e,i = 1.76, 0.41, 8                   q = 1.0311
    Date    TT    R. A. (2000) Decl.     Delta      r     Elong.  Phase     V
    2019 03 10    11 45 32.6 -17 09 14   0.2010  1.1811   157.5    18.8    22.6
    ...
    2019 03 25    12 30 25.3 -14 23 45   0.1206  1.1146   166.5    12.1    21.2
    ...
    2019 04 02    13 21 14.7 -09 01 44   0.08756 1.0856   169.6     9.6    20.3
    ...
    2019 04 08    14 23 03.6 -01 18 38   0.07035 1.0674   159.7    18.9    20.1
    2019 04 09    14 35 43.1 +00 19 52   0.06839 1.0647   157.0    21.6    20.2
    2019 04 10    14 49 00.4 +02 03 17   0.06674 1.0620   154.0    24.4    20.2
    ...
    2019 04 16    16 17 16.5 +12 50 20   0.06392 1.0485   133.6    43.8    20.6
    ...
    2019 04 24    18 04 40.6 +22 24 21   0.07705 1.0362   111.5    64.5    21.6
    ...
    2019 05 09    19 49 53.1 +26 37 48   0.1235  1.0328    97.5    75.7    23.0
    
    A. U. Tomatic                (C) Copyright 2019 MPC           M.P.E.C. 2019-G134
    

    Read MPEC 2019-G133 Read MPEC 2019-G135


    MPEC number:

    Enter an MPEC number in one of the following forms:

    • 1997-B01 (the full form)
    • J97B01 (the packed version of the full form)
    • B01 (the abbreviated form)